When you browse on this site, cookies collect data to enhance your experience and personalize the content and advertising you see.
Visit our Privacy Policy to learn more. By continuing to use the site, you agree to this use of cookies and data.
  • In Czech Republic
  • List of Countries
  • For 7 days
  • Water Temperature
  • Satellite Maps
  • Weather Map
  • Weather Widgets
  • user-avatar
    Login

    Hourly Weather Jinan

    Today, 20 June, Thursday

    Time Temperature Precipitation Wind Pressure Humidity
    00:00 +33°C° 0 mm 3 mps 747 mmHg 43%
    01:00 +31°C° 0 mm 3 mps 747 mmHg 44%
    02:00 +30°C° 0 mm 4 mps 747 mmHg 48%
    03:00 +30°C° 0 mm 4 mps 747 mmHg 49%
    04:00 +30°C° 0 mm 4 mps 747 mmHg 50%
    05:00 +29°C° 0 mm 4 mps 748 mmHg 52%
    06:00 +30°C° 0.3 mm 4 mps 748 mmHg 51%
    07:00 +32°C° 0.3 mm 4 mps 748 mmHg 50%
    08:00 +33°C° 0.3 mm 5 mps 748 mmHg 50%
    09:00 +33°C° 0.1 mm 4 mps 748 mmHg 47%
    10:00 +34°C° 0.1 mm 3 mps 748 mmHg 45%
    11:00 +34°C° 0.1 mm 2 mps 748 mmHg 43%
    12:00 +33°C° 0 mm 1 mps 748 mmHg 41%
    13:00 +34°C° 0 mm 1 mps 748 mmHg 40%
    14:00 +34°C° 0 mm 1 mps 748 mmHg 38%
    15:00 +34°C° 0 mm 1 mps 747 mmHg 39%
    16:00 +35°C° 0 mm 2 mps 747 mmHg 40%
    17:00 +35°C° 0 mm 2 mps 747 mmHg 41%
    18:00 +34°C° 0 mm 3 mps 747 mmHg 46%
    19:00 +31°C° 0 mm 3 mps 747 mmHg 51%
    20:00 +30°C° 0 mm 3 mps 747 mmHg 56%
    21:00 +30°C° 0 mm 3 mps 748 mmHg 57%
    22:00 +29°C° 0 mm 3 mps 748 mmHg 58%
    23:00 +29°C° 0 mm 2 mps 748 mmHg 60%

    Tomorrow, 21 June, Friday

    Time Temperature Precipitation Wind Pressure Humidity
    00:00 +28°C° 0 mm 2 mps 748 mmHg 61%
    01:00 +28°C° 0 mm 2 mps 748 mmHg 61%
    02:00 +28°C° 0 mm 2 mps 748 mmHg 62%
    03:00 +27°C° 0 mm 1 mps 748 mmHg 63%
    04:00 +27°C° 0 mm 1 mps 748 mmHg 64%
    05:00 +26°C° 0 mm 1 mps 748 mmHg 66%
    06:00 +28°C° 0 mm 1 mps 748 mmHg 60%
    07:00 +29°C° 0 mm 1 mps 749 mmHg 55%
    08:00 +31°C° 0 mm 1 mps 749 mmHg 50%
    09:00 +32°C° 0 mm 2 mps 749 mmHg 44%
    10:00 +35°C° 0 mm 3 mps 749 mmHg 39%
    11:00 +37°C° 0 mm 3 mps 749 mmHg 33%
    12:00 +38°C° 0 mm 4 mps 749 mmHg 30%
    13:00 +40°C° 0 mm 4 mps 748 mmHg 27%
    14:00 +41°C° 0 mm 4 mps 748 mmHg 24%
    15:00 +40°C° 0 mm 5 mps 748 mmHg 25%
    16:00 +40°C° 0 mm 6 mps 748 mmHg 27%
    17:00 +39°C° 0 mm 6 mps 748 mmHg 29%
    18:00 +36°C° 0 mm 6 mps 748 mmHg 31%
    19:00 +34°C° 0 mm 6 mps 748 mmHg 32%
    20:00 +32°C° 0 mm 5 mps 749 mmHg 34%
    21:00 +30°C° 0 mm 5 mps 749 mmHg 34%
    22:00 +29°C° 0 mm 4 mps 750 mmHg 34%
    23:00 +29°C° 0 mm 3 mps 750 mmHg 34%

    Day after tomorrow, 22 June, Saturday

    Time Temperature Precipitation Wind Pressure Humidity
    00:00 +28°C° 0 mm 3 mps 750 mmHg 33%
    01:00 +28°C° 0 mm 3 mps 750 mmHg 32%
    02:00 +28°C° 0 mm 3 mps 750 mmHg 31%
    03:00 +27°C° 0 mm 3 mps 750 mmHg 32%
    04:00 +27°C° 0 mm 2 mps 751 mmHg 33%
    05:00 +26°C° 0 mm 2 mps 751 mmHg 34%
    06:00 +28°C° 0 mm 2 mps 751 mmHg 32%
    07:00 +29°C° 0 mm 2 mps 751 mmHg 30%
    08:00 +30°C° 0 mm 2 mps 752 mmHg 28%
    09:00 +33°C° 0 mm 3 mps 751 mmHg 26%
    10:00 +34°C° 0 mm 3 mps 751 mmHg 25%
    11:00 +36°C° 0 mm 3 mps 751 mmHg 24%
    12:00 +37°C° 0 mm 4 mps 750 mmHg 23%
    13:00 +37°C° 0 mm 4 mps 750 mmHg 22%
    14:00 +38°C° 0 mm 4 mps 749 mmHg 21%
    15:00 +39°C° 0 mm 5 mps 749 mmHg 21%
    16:00 +39°C° 0 mm 5 mps 749 mmHg 21%
    17:00 +39°C° 0 mm 5 mps 748 mmHg 21%
    18:00 +36°C° 0 mm 5 mps 749 mmHg 22%
    19:00 +35°C° 0 mm 5 mps 749 mmHg 24%
    20:00 +33°C° 0 mm 5 mps 749 mmHg 25%
    21:00 +32°C° 0 mm 4 mps 749 mmHg 26%
    22:00 +30°C° 0 mm 3 mps 750 mmHg 27%
    23:00 +30°C° 0 mm 2 mps 750 mmHg 28%

    23 June, Sunday

    Time Temperature Precipitation Wind Pressure Humidity
    00:00 +29°C° 0 mm 2 mps 750 mmHg 27%
    01:00 +29°C° 0 mm 2 mps 750 mmHg 27%
    02:00 +29°C° 0 mm 2 mps 749 mmHg 27%
    03:00 +29°C° 0 mm 2 mps 749 mmHg 27%
    04:00 +28°C° 0 mm 2 mps 749 mmHg 28%
    05:00 +28°C° 0 mm 2 mps 750 mmHg 28%
    06:00 +29°C° 0 mm 2 mps 750 mmHg 27%
    07:00 +30°C° 0 mm 2 mps 750 mmHg 27%
    08:00 +31°C° 0 mm 3 mps 750 mmHg 26%
    09:00 +34°C° 0 mm 3 mps 750 mmHg 23%
    10:00 +36°C° 0 mm 2 mps 750 mmHg 21%
    11:00 +38°C° 0 mm 2 mps 750 mmHg 19%
    12:00 +39°C° 0 mm 2 mps 749 mmHg 18%
    13:00 +40°C° 0 mm 2 mps 748 mmHg 17%
    14:00 +41°C° 0 mm 1 mps 748 mmHg 15%
    15:00 +41°C° 0 mm 1 mps 747 mmHg 15%
    16:00 +41°C° 0 mm 1 mps 747 mmHg 15%
    17:00 +41°C° 0 mm 2 mps 747 mmHg 15%
    18:00 +39°C° 0 mm 1 mps 747 mmHg 16%
    19:00 +37°C° 0 mm 1 mps 747 mmHg 18%
    20:00 +36°C° 0 mm 1 mps 747 mmHg 19%
    21:00 +36°C° 0 mm 2 mps 748 mmHg 21%
    22:00 +35°C° 0 mm 2 mps 748 mmHg 22%
    23:00 +34°C° 0 mm 3 mps 748 mmHg 24%

    24 June, Monday

    Time Temperature Precipitation Wind Pressure Humidity
    00:00 +34°C° 0 mm 3 mps 748 mmHg 25%
    01:00 +33°C° 0 mm 4 mps 748 mmHg 27%
    02:00 +32°C° 0 mm 4 mps 748 mmHg 28%
    03:00 +32°C° 0 mm 4 mps 748 mmHg 30%
    04:00 +30°C° 0 mm 4 mps 748 mmHg 31%
    05:00 +29°C° 0 mm 4 mps 748 mmHg 33%
    06:00 +32°C° 0 mm 4 mps 749 mmHg 31%
    07:00 +33°C° 0 mm 4 mps 749 mmHg 29%
    08:00 +34°C° 0 mm 4 mps 749 mmHg 27%
    09:00 +36°C° 0 mm 4 mps 749 mmHg 25%
    10:00 +37°C° 0 mm 4 mps 750 mmHg 23%
    11:00 +40°C° 0 mm 4 mps 750 mmHg 20%
    12:00 +40°C° 0 mm 3 mps 749 mmHg 19%
    13:00 +42°C° 0 mm 3 mps 749 mmHg 18%
    14:00 +42°C° 0 mm 2 mps 748 mmHg 16%
    15:00 +43°C° 0 mm 3 mps 748 mmHg 16%
    16:00 +43°C° 0 mm 3 mps 748 mmHg 16%
    17:00 +43°C° 0 mm 3 mps 747 mmHg 16%
    18:00 +40°C° 0 mm 3 mps 748 mmHg 19%
    19:00 +40°C° 0 mm 4 mps 748 mmHg 21%
    20:00 +37°C° 0 mm 4 mps 748 mmHg 23%
    21:00 +36°C° 0 mm 4 mps 748 mmHg 26%
    22:00 +35°C° 0 mm 4 mps 749 mmHg 28%
    23:00 +34°C° 0 mm 5 mps 749 mmHg 30%

    25 June, Tuesday

    Time Temperature Precipitation Wind Pressure Humidity
    00:00 +33°C° 0 mm 5 mps 749 mmHg 32%
    01:00 +32°C° 0 mm 4 mps 749 mmHg 35%
    02:00 +30°C° 0 mm 4 mps 749 mmHg 37%
    03:00 +30°C° 0 mm 4 mps 749 mmHg 38%
    04:00 +29°C° 0 mm 4 mps 749 mmHg 40%
    05:00 +29°C° 0 mm 3 mps 750 mmHg 42%
    06:00 +30°C° 0 mm 3 mps 750 mmHg 40%
    07:00 +32°C° 0 mm 4 mps 750 mmHg 39%
    08:00 +32°C° 0 mm 4 mps 750 mmHg 37%
    09:00 +34°C° 0 mm 4 mps 750 mmHg 35%
    10:00 +35°C° 0 mm 3 mps 751 mmHg 32%
    11:00 +36°C° 0 mm 3 mps 751 mmHg 29%
    12:00 +37°C° 0 mm 3 mps 750 mmHg 28%
    13:00 +38°C° 0 mm 4 mps 750 mmHg 26%
    14:00 +40°C° 0 mm 4 mps 749 mmHg 25%
    15:00 +38°C° 0 mm 4 mps 749 mmHg 25%
    16:00 +38°C° 0 mm 4 mps 749 mmHg 26%
    17:00 +38°C° 0 mm 4 mps 748 mmHg 26%
    18:00 +36°C° 0 mm 4 mps 748 mmHg 28%
    19:00 +35°C° 0 mm 5 mps 748 mmHg 30%
    20:00 +34°C° 0 mm 5 mps 749 mmHg 32%
    21:00 +32°C° 0 mm 4 mps 749 mmHg 35%
    22:00 +30°C° 0 mm 4 mps 749 mmHg 38%
    23:00 +29°C° 0 mm 4 mps 750 mmHg 42%
    Show more